Time,TemperatureF,DewpointF,PressureIn,WindDirection,WindDirectionDegrees,WindSpeedMPH,WindSpeedGustMPH,Humidity,HourlyPrecipIn,Conditions,Clouds,dailyrainin,SoftwareType,DateUTC
2013-01-07 00:03:00,33.0,25.0,-100.00,East,83,1.0,4.0,74,0.00,,,0.00,,2013-01-07 05:03:00,
2013-01-07 00:12:00,33.0,25.0,-100.00,East,83,1.0,4.0,74,0.00,,,0.00,,2013-01-07 05:12:00,
2013-01-07 00:22:00,32.0,26.0,-100.00,SE,131,5.0,7.0,76,0.00,,,0.00,,2013-01-07 05:22:00,
2013-01-07 00:33:00,32.0,25.0,-100.00,SW,227,0.0,1.0,76,0.00,,,0.00,,2013-01-07 05:33:00,
2013-01-07 00:42:00,32.0,25.0,-100.00,SW,227,0.0,1.0,76,0.00,,,0.00,,2013-01-07 05:42:00,
2013-01-07 00:53:00,32.0,25.0,-100.00,SW,227,0.0,1.0,76,0.00,,,0.00,,2013-01-07 05:53:00,
2013-01-07 01:02:00,32.0,26.0,-100.00,ESE,117,2.0,4.0,78,0.00,,,0.00,,2013-01-07 06:02:00,
2013-01-07 01:12:00,32.0,26.0,-100.00,ESE,117,2.0,4.0,78,0.00,,,0.00,,2013-01-07 06:12:00,
2013-01-07 01:22:00,31.0,26.0,-100.00,ESE,110,4.0,5.0,79,0.00,,,0.00,,2013-01-07 06:22:00,
2013-01-07 01:32:00,31.0,26.0,-100.00,ESE,110,4.0,5.0,79,0.00,,,0.00,,2013-01-07 06:32:00,
2013-01-07 01:42:00,31.0,26.0,-100.00,ESE,103,3.0,6.0,80,0.00,,,0.00,,2013-01-07 06:42:00,
2013-01-07 01:52:00,31.0,26.0,-100.00,ESE,103,3.0,6.0,80,0.00,,,0.00,,2013-01-07 06:52:00,
2013-01-07 02:02:00,31.0,25.0,-100.00,ESE,116,4.0,7.0,80,0.00,,,0.00,,2013-01-07 07:02:00,
2013-01-07 02:12:00,31.0,25.0,-100.00,ESE,116,4.0,7.0,80,0.00,,,0.00,,2013-01-07 07:12:00,
2013-01-07 02:22:00,30.0,25.0,-100.00,East,89,7.0,11.0,80,0.00,,,0.00,,2013-01-07 07:22:00,
2013-01-07 02:33:00,30.0,25.0,-100.00,East,89,7.0,11.0,80,0.00,,,0.00,,2013-01-07 07:33:00,
2013-01-07 02:42:00,30.0,24.0,-100.00,ESE,114,4.0,7.0,80,0.00,,,0.00,,2013-01-07 07:42:00,
2013-01-07 02:53:00,30.0,24.0,-100.00,ESE,114,4.0,7.0,80,0.00,,,0.00,,2013-01-07 07:53:00,
2013-01-07 03:03:00,29.0,24.0,-100.00,ESE,107,3.0,5.0,81,0.00,,,0.00,,2013-01-07 08:03:00,
2013-01-07 03:12:00,29.0,24.0,-100.00,ESE,107,3.0,5.0,81,0.00,,,0.00,,2013-01-07 08:12:00,
2013-01-07 03:22:00,29.0,24.0,-100.00,East,89,7.0,11.0,80,0.00,,,0.00,,2013-01-07 08:22:00,
2013-01-07 03:33:00,29.0,24.0,-100.00,East,89,7.0,11.0,80,0.00,,,0.00,,2013-01-07 08:33:00,
2013-01-07 03:43:00,29.0,24.0,-100.00,East,100,4.0,7.0,80,0.00,,,0.00,,2013-01-07 08:43:00,
2013-01-07 03:53:00,29.0,24.0,-100.00,East,100,4.0,7.0,80,0.00,,,0.00,,2013-01-07 08:53:00,
2013-01-07 04:02:00,29.0,23.0,-100.00,East,96,4.0,5.0,80,0.00,,,0.00,,2013-01-07 09:02:00,
2013-01-07 04:12:00,29.0,23.0,-100.00,East,96,4.0,5.0,80,0.00,,,0.00,,2013-01-07 09:12:00,
2013-01-07 04:23:00,29.0,23.0,-100.00,SE,140,2.0,4.0,81,0.00,,,0.00,,2013-01-07 09:23:00,
2013-01-07 04:32:00,29.0,23.0,-100.00,SE,140,2.0,4.0,81,0.00,,,0.00,,2013-01-07 09:32:00,
2013-01-07 04:42:00,28.0,23.0,-100.00,NNE,14,2.0,4.0,79,0.00,,,0.00,,2013-01-07 09:42:00,
2013-01-07 04:53:00,28.0,23.0,-100.00,NNE,14,2.0,4.0,79,0.00,,,0.00,,2013-01-07 09:53:00,
2013-01-07 05:02:00,28.0,23.0,-100.00,East,89,3.0,5.0,80,0.00,,,0.00,,2013-01-07 10:02:00,
2013-01-07 05:12:00,28.0,23.0,-100.00,East,89,3.0,5.0,80,0.00,,,0.00,,2013-01-07 10:12:00,
2013-01-07 05:22:00,28.0,23.0,-100.00,ESE,117,3.0,4.0,80,0.00,,,0.00,,2013-01-07 10:22:00,
2013-01-07 05:33:00,28.0,23.0,-100.00,ESE,117,3.0,4.0,80,0.00,,,0.00,,2013-01-07 10:33:00,
2013-01-07 05:42:00,28.0,22.0,-100.00,East,92,4.0,6.0,79,0.00,,,0.00,,2013-01-07 10:42:00,
2013-01-07 05:53:00,28.0,22.0,-100.00,NNE,25,2.0,2.0,80,0.00,,,0.00,,2013-01-07 10:53:00,
2013-01-07 06:02:00,28.0,22.0,-100.00,NNE,25,2.0,2.0,80,0.00,,,0.00,,2013-01-07 11:02:00,
2013-01-07 06:12:00,28.0,22.0,-100.00,NNE,25,2.0,2.0,80,0.00,,,0.00,,2013-01-07 11:12:00,
2013-01-07 06:23:00,27.0,22.0,-100.00,South,171,1.0,3.0,80,0.00,,,0.00,,2013-01-07 11:23:00,
2013-01-07 06:33:00,27.0,22.0,-100.00,South,171,1.0,3.0,80,0.00,,,0.00,,2013-01-07 11:33:00,
2013-01-07 06:43:00,27.0,22.0,-100.00,South,172,2.0,3.0,80,0.00,,,0.00,,2013-01-07 11:43:00,
2013-01-07 06:53:00,27.0,22.0,-100.00,South,172,2.0,3.0,80,0.00,,,0.00,,2013-01-07 11:53:00,
2013-01-07 07:03:00,28.0,22.0,-100.00,SSE,151,1.0,2.0,80,0.00,,,0.00,,2013-01-07 12:03:00,
2013-01-07 07:12:00,28.0,22.0,-100.00,SSE,151,1.0,2.0,80,0.00,,,0.00,,2013-01-07 12:12:00,
2013-01-07 07:23:00,28.0,22.0,-100.00,ESE,114,0.0,1.0,80,0.00,,,0.00,,2013-01-07 12:23:00,
2013-01-07 07:33:00,28.0,22.0,-100.00,ESE,114,0.0,1.0,80,0.00,,,0.00,,2013-01-07 12:33:00,
2013-01-07 07:43:00,27.0,22.0,-100.00,SSE,162,1.0,1.0,80,0.00,,,0.00,,2013-01-07 12:43:00,
2013-01-07 07:53:00,27.0,22.0,-100.00,SSE,162,1.0,1.0,80,0.00,,,0.00,,2013-01-07 12:53:00,
2013-01-07 08:03:00,27.0,22.0,-100.00,WSW,239,2.0,5.0,80,0.00,,,0.00,,2013-01-07 13:03:00,
2013-01-07 08:12:00,27.0,22.0,-100.00,WSW,239,2.0,5.0,80,0.00,,,0.00,,2013-01-07 13:12:00,
2013-01-07 08:23:00,27.0,23.0,-100.00,ESE,109,2.0,3.0,81,0.00,,,0.00,,2013-01-07 13:23:00,
2013-01-07 08:33:00,27.0,23.0,-100.00,ESE,109,2.0,3.0,81,0.00,,,0.00,,2013-01-07 13:33:00,
2013-01-07 08:43:00,27.0,22.0,-100.00,SE,133,3.0,5.0,81,0.00,,,0.00,,2013-01-07 13:43:00,
2013-01-07 09:03:00,27.0,22.0,-100.00,East,85,3.0,4.0,81,0.00,,,0.00,,2013-01-07 14:03:00,
2013-01-07 09:13:00,27.0,22.0,-100.00,East,85,3.0,4.0,81,0.00,,,0.00,,2013-01-07 14:13:00,
2013-01-07 09:23:00,28.0,22.0,-100.00,ENE,75,7.0,10.0,79,0.00,,,0.00,,2013-01-07 14:23:00,
2013-01-07 09:33:00,28.0,22.0,-100.00,ENE,75,7.0,10.0,79,0.00,,,0.00,,2013-01-07 14:33:00,
2013-01-07 09:43:00,29.0,23.0,-100.00,East,85,6.0,9.0,77,0.00,,,0.00,,2013-01-07 14:43:00,
2013-01-07 09:53:00,29.0,23.0,-100.00,East,85,6.0,9.0,77,0.00,,,0.00,,2013-01-07 14:53:00,
2013-01-07 10:03:00,30.0,23.0,-100.00,East,89,7.0,10.0,75,0.00,,,0.00,,2013-01-07 15:03:00,
2013-01-07 10:12:00,30.0,23.0,-100.00,East,89,7.0,10.0,75,0.00,,,0.00,,2013-01-07 15:12:00,
2013-01-07 10:23:00,31.0,24.0,-100.00,ENE,71,5.0,7.0,75,0.00,,,0.00,,2013-01-07 15:23:00,
2013-01-07 10:33:00,31.0,24.0,-100.00,ENE,71,5.0,7.0,75,0.00,,,0.00,,2013-01-07 15:33:00,
2013-01-07 10:43:00,32.0,23.0,-100.00,ESE,109,4.0,10.0,70,0.00,,,0.00,,2013-01-07 15:43:00,
2013-01-07 10:53:00,32.0,23.0,-100.00,ESE,109,4.0,10.0,70,0.00,,,0.00,,2013-01-07 15:53:00,
2013-01-07 11:03:00,33.0,24.0,-100.00,East,95,5.0,6.0,69,0.00,,,0.00,,2013-01-07 16:03:00,
2013-01-07 11:12:00,33.0,24.0,-100.00,East,95,5.0,6.0,69,0.00,,,0.00,,2013-01-07 16:12:00,
2013-01-07 11:23:00,33.0,24.0,-100.00,East,88,5.0,8.0,69,0.00,,,0.00,,2013-01-07 16:23:00,
2013-01-07 11:33:00,33.0,24.0,-100.00,East,88,5.0,8.0,69,0.00,,,0.00,,2013-01-07 16:33:00,
2013-01-07 11:43:00,34.0,24.0,-100.00,ENE,78,5.0,8.0,65,0.00,,,0.00,,2013-01-07 16:43:00,
2013-01-07 11:53:00,34.0,24.0,-100.00,ENE,78,5.0,8.0,65,0.00,,,0.00,,2013-01-07 16:53:00,
2013-01-07 12:03:00,40.0,25.0,-100.00,South,184,2.0,5.0,56,0.00,,,0.00,,2013-01-07 17:03:00,
2013-01-07 12:12:00,40.0,25.0,-100.00,South,184,2.0,5.0,56,0.00,,,0.00,,2013-01-07 17:12:00,
2013-01-07 12:23:00,37.0,24.0,-100.00,SSE,168,5.0,7.0,59,0.00,,,0.00,,2013-01-07 17:23:00,
2013-01-07 12:33:00,37.0,24.0,-100.00,SSE,168,5.0,7.0,59,0.00,,,0.00,,2013-01-07 17:33:00,
2013-01-07 12:42:00,40.0,24.0,-100.00,SSE,161,2.0,4.0,53,0.00,,,0.00,,2013-01-07 17:42:00,
2013-01-07 12:53:00,40.0,24.0,-100.00,SSE,161,2.0,4.0,53,0.00,,,0.00,,2013-01-07 17:53:00,
2013-01-07 13:03:00,41.0,25.0,-100.00,South,174,2.0,4.0,53,0.00,,,0.00,,2013-01-07 18:03:00,
2013-01-07 13:13:00,41.0,25.0,-100.00,South,174,2.0,4.0,53,0.00,,,0.00,,2013-01-07 18:13:00,
2013-01-07 13:23:00,42.0,24.0,-100.00,SSE,160,4.0,8.0,50,0.00,,,0.00,,2013-01-07 18:23:00,
2013-01-07 13:33:00,42.0,24.0,-100.00,SSE,160,4.0,8.0,50,0.00,,,0.00,,2013-01-07 18:33:00,
2013-01-07 13:43:00,43.0,25.0,-100.00,South,172,2.0,4.0,49,0.00,,,0.00,,2013-01-07 18:43:00,
2013-01-07 13:53:00,43.0,25.0,-100.00,South,172,2.0,4.0,49,0.00,,,0.00,,2013-01-07 18:53:00,
2013-01-07 14:03:00,42.0,24.0,-100.00,South,185,4.0,5.0,48,0.00,,,0.00,,2013-01-07 19:03:00,
2013-01-07 14:12:00,42.0,24.0,-100.00,South,185,4.0,5.0,48,0.00,,,0.00,,2013-01-07 19:12:00,
2013-01-07 14:23:00,43.0,25.0,-100.00,SE,127,3.0,4.0,48,0.00,,,0.00,,2013-01-07 19:23:00,
2013-01-07 14:33:00,43.0,25.0,-100.00,SE,127,3.0,4.0,48,0.00,,,0.00,,2013-01-07 19:33:00,
2013-01-07 14:43:00,49.0,27.0,-100.00,SE,138,1.0,3.0,42,0.00,,,0.00,,2013-01-07 19:43:00,
2013-01-07 14:53:00,49.0,27.0,-100.00,SE,138,1.0,3.0,42,0.00,,,0.00,,2013-01-07 19:53:00,
2013-01-07 15:03:00,47.0,26.0,-100.00,SSE,165,2.0,4.0,43,0.00,,,0.00,,2013-01-07 20:03:00,
2013-01-07 15:13:00,47.0,26.0,-100.00,SSE,165,2.0,4.0,43,0.00,,,0.00,,2013-01-07 20:13:00,
2013-01-07 15:23:00,47.0,26.0,-100.00,WNW,285,2.0,3.0,42,0.00,,,0.00,,2013-01-07 20:23:00,
2013-01-07 15:33:00,47.0,26.0,-100.00,WNW,285,2.0,3.0,42,0.00,,,0.00,,2013-01-07 20:33:00,
2013-01-07 15:43:00,49.0,25.0,-100.00,SW,220,2.0,5.0,39,0.00,,,0.00,,2013-01-07 20:43:00,
2013-01-07 15:53:00,49.0,25.0,-100.00,SW,220,2.0,5.0,39,0.00,,,0.00,,2013-01-07 20:53:00,
2013-01-07 16:03:00,47.0,24.0,-100.00,ENE,76,4.0,7.0,41,0.00,,,0.00,,2013-01-07 21:03:00,
2013-01-07 16:12:00,47.0,24.0,-100.00,ENE,76,4.0,7.0,41,0.00,,,0.00,,2013-01-07 21:12:00,
2013-01-07 16:23:00,49.0,23.0,-100.00,SE,143,2.0,4.0,37,0.00,,,0.00,,2013-01-07 21:23:00,
2013-01-07 16:33:00,49.0,23.0,-100.00,SE,143,2.0,4.0,37,0.00,,,0.00,,2013-01-07 21:33:00,
2013-01-07 16:43:00,49.0,25.0,-100.00,SSE,162,2.0,3.0,38,0.00,,,0.00,,2013-01-07 21:43:00,
2013-01-07 16:53:00,49.0,25.0,-100.00,SSE,162,2.0,3.0,38,0.00,,,0.00,,2013-01-07 21:53:00,
2013-01-07 17:03:00,49.0,23.0,-100.00,ENE,58,3.0,5.0,35,0.00,,,0.00,,2013-01-07 22:03:00,
2013-01-07 17:12:00,49.0,23.0,-100.00,ENE,58,3.0,5.0,35,0.00,,,0.00,,2013-01-07 22:12:00,
2013-01-07 17:23:00,49.0,25.0,-100.00,SSW,210,2.0,3.0,39,0.00,,,0.00,,2013-01-07 22:23:00,
2013-01-07 17:33:00,49.0,25.0,-100.00,SSW,210,2.0,3.0,39,0.00,,,0.00,,2013-01-07 22:33:00,
2013-01-07 17:43:00,47.0,26.0,-100.00,South,191,1.0,2.0,43,0.00,,,0.00,,2013-01-07 22:43:00,
2013-01-07 17:53:00,47.0,26.0,-100.00,South,191,1.0,2.0,43,0.00,,,0.00,,2013-01-07 22:53:00,
2013-01-07 18:03:00,45.0,26.0,-100.00,South,188,1.0,2.0,46,0.00,,,0.00,,2013-01-07 23:03:00,
2013-01-07 18:12:00,45.0,26.0,-100.00,South,188,1.0,2.0,46,0.00,,,0.00,,2013-01-07 23:12:00,
2013-01-07 18:23:00,43.0,26.0,-100.00,North,11,1.0,2.0,49,0.00,,,0.00,,2013-01-07 23:23:00,
2013-01-07 18:33:00,43.0,26.0,-100.00,North,11,1.0,2.0,49,0.00,,,0.00,,2013-01-07 23:33:00,
2013-01-07 18:43:00,43.0,26.0,-100.00,North,357,1.0,2.0,50,0.00,,,0.00,,2013-01-07 23:43:00,
2013-01-07 18:53:00,43.0,26.0,-100.00,North,357,1.0,2.0,50,0.00,,,0.00,,2013-01-07 23:53:00,
2013-01-07 19:03:00,42.0,25.0,-100.00,NNW,333,2.0,3.0,51,0.00,,,0.00,,2013-01-08 00:03:00,
2013-01-07 19:12:00,42.0,25.0,-100.00,NNW,333,2.0,3.0,51,0.00,,,0.00,,2013-01-08 00:12:00,
2013-01-07 19:23:00,41.0,26.0,-100.00,WNW,302,1.0,2.0,54,0.00,,,0.00,,2013-01-08 00:23:00,
2013-01-07 19:33:00,41.0,26.0,-100.00,WNW,302,1.0,2.0,54,0.00,,,0.00,,2013-01-08 00:33:00,
2013-01-07 19:42:00,40.0,25.0,-100.00,NW,318,1.0,2.0,54,0.00,,,0.00,,2013-01-08 00:42:00,
2013-01-07 19:53:00,40.0,25.0,-100.00,NW,318,1.0,2.0,54,0.00,,,0.00,,2013-01-08 00:53:00,
2013-01-07 20:03:00,40.0,24.0,-100.00,NNW,344,1.0,2.0,52,0.00,,,0.00,,2013-01-08 01:03:00,
2013-01-07 20:12:00,40.0,24.0,-100.00,NNW,344,1.0,2.0,52,0.00,,,0.00,,2013-01-08 01:12:00,
2013-01-07 20:22:00,40.0,24.0,-100.00,NNW,328,2.0,2.0,54,0.00,,,0.00,,2013-01-08 01:22:00,
2013-01-07 20:33:00,40.0,24.0,-100.00,NNW,328,2.0,2.0,54,0.00,,,0.00,,2013-01-08 01:33:00,
2013-01-07 20:42:00,39.0,24.0,-100.00,WNW,288,1.0,1.0,55,0.00,,,0.00,,2013-01-08 01:42:00,
2013-01-07 20:53:00,39.0,24.0,-100.00,WNW,288,1.0,1.0,55,0.00,,,0.00,,2013-01-08 01:53:00,
2013-01-07 21:02:00,38.0,24.0,-100.00,NW,308,1.0,2.0,57,0.00,,,0.00,,2013-01-08 02:02:00,
2013-01-07 21:12:00,38.0,24.0,-100.00,NW,308,1.0,2.0,57,0.00,,,0.00,,2013-01-08 02:12:00,
2013-01-07 21:22:00,38.0,25.0,-100.00,WSW,244,2.0,3.0,59,0.00,,,0.00,,2013-01-08 02:22:00,
2013-01-07 21:33:00,38.0,25.0,-100.00,WSW,244,2.0,3.0,59,0.00,,,0.00,,2013-01-08 02:33:00,
2013-01-07 21:43:00,37.0,25.0,-100.00,South,181,1.0,2.0,61,0.00,,,0.00,,2013-01-08 02:43:00,
2013-01-07 21:53:00,37.0,25.0,-100.00,South,181,1.0,2.0,61,0.00,,,0.00,,2013-01-08 02:53:00,
2013-01-07 22:03:00,37.0,25.0,-100.00,North,4,2.0,4.0,61,0.00,,,0.00,,2013-01-08 03:03:00,
2013-01-07 22:12:00,37.0,25.0,-100.00,North,4,2.0,4.0,61,0.00,,,0.00,,2013-01-08 03:12:00,
2013-01-07 22:22:00,35.0,25.0,-100.00,North,11,1.0,2.0,65,0.00,,,0.00,,2013-01-08 03:22:00,
2013-01-07 22:33:00,35.0,25.0,-100.00,North,11,1.0,2.0,65,0.00,,,0.00,,2013-01-08 03:33:00,
2013-01-07 22:43:00,35.0,25.0,-100.00,NE,45,2.0,3.0,67,0.00,,,0.00,,2013-01-08 03:43:00,
2013-01-07 22:53:00,35.0,25.0,-100.00,NE,45,2.0,3.0,67,0.00,,,0.00,,2013-01-08 03:53:00,
2013-01-07 23:02:00,36.0,25.0,-100.00,South,184,2.0,4.0,64,0.00,,,0.00,,2013-01-08 04:02:00,
2013-01-07 23:12:00,36.0,25.0,-100.00,South,184,2.0,4.0,64,0.00,,,0.00,,2013-01-08 04:12:00,
2013-01-07 23:22:00,36.0,25.0,-100.00,NNE,32,2.0,3.0,64,0.00,,,0.00,,2013-01-08 04:22:00,
2013-01-07 23:32:00,36.0,25.0,-100.00,NNE,32,2.0,3.0,64,0.00,,,0.00,,2013-01-08 04:32:00,
2013-01-07 23:42:00,36.0,25.0,-100.00,NNE,28,1.0,2.0,64,0.00,,,0.00,,2013-01-08 04:42:00,
2013-01-07 23:52:00,36.0,25.0,-100.00,NNE,28,1.0,2.0,64,0.00,,,0.00,,2013-01-08 04:52:00,